DELTA 1 DEB, 10714

Orbit data source: Space-Track

DELTA 1 DEB, 10714 is space debris in LEO originally from a launch on Thu, 29 Jul 1976 UTC launched from the Air Force Western Test Range (AFWTR). Debris objects in space refer to the collection of defunct objects orbiting the Earth. Examples of debris include non-operational satellites, rocket bodies, and fragments generated from explosions, collisions, or faulty payload assembly.

Loading next visibility...
Identifier
10714, 1976-077AK
Orbit
LEO
Country
Flag of USUS
Related business
Manufacturer
Unknown
Mission
Spacecraft
Bus & Motor
Unknown
Mass
Unknown
Launch date (UTC)
1976-07-29 (49 years ago)
Launch vehicle
Unknown
Launch site
Air Force Western Test Range (AFWTR)
Object type
Payload
Rocket body
Debris
Shape & HBR
Unknown shape, 0.1 m
Radar Cross Section
Medium (>0.1 m² and <1 m²)

Expand to show TLE details & history
Last TLE update: 3 days ago

TLE from 3 days ago
0 DELTA 1 DEB
1 10714U 76077AK  25306.66337008 -.00001854  00000-0 -24526-1 0  9999
2 10714 103.3545 214.8439 0613768 313.5947  70.1134 11.54383318 66904
Epoch: 2025-11-02T15:55Z
TLE epoch observation values (Epoch: 2025-11-02T15:55:15.174Z)
Latitude
29.62199°
Longitude
-73.8654°
Altitude
1,750.738 km
Speed
7.067 km/s
True Right ascension
13h 48m 29s
True Declination
29° 29' 33"
Sunlit
Object was in daylight at epoch
Visualization orbit readout
Latitude
Unknown
Longitude
Unknown
Altitude
Unknown
Speed
Unknown
Apparent Right ascension
Unknown
Apparent Declination
Unknown
Sunlit
N/A
Visualization observer readout
Local Sidereal Time
15:05:09
Azimuth
Unknown
Elevation
Unknown
Doppler factor
Unknown
Orbital elements
Apogee altitude
2,396.993 km
Perigee altitude
1,382.105 km
Semi-major axis
8,267.686 km
Eccentricity
0.06138
Inclination
103.3545°
RAAN
214.8439°
Arg. of periapsis
313.5947°
True anomaly
76.88841°
Mean anomaly
70.1134°
Eccentric anomaly
73.48495°
Mean motion
2.88714 °/min
Orbital period
124.69 mins
BSTAR
-0.024526
Loading maneuver chart data...
Computing Atmospheric mass density...
Loading historical data...
Loading historical data...
Loading historical data...
Loading historical data...
Loading historical data...
Loading historical data...
Loading historical data...

Documentation

Showing up to 5 results
|